ROMMA est une association bénévole à but non lucratif. Votre soutien est indispensable : ADHERER à ROMMA ou FAIRE un DON

Val-d'Isère - (73, Savoie)

Haute-Maurienne (1850 m)   Longitude: 6° 58' 52'' E   Latitude: 45° 26' 53'' N Station partenaire n°93
 

Détail journalier du     <<     >>

Température Precipitation Humidité Vent Dir Rafale Dir. rafale Ensol.
Heure (°C) (mm) (%) (km/h) (km/h) (min)
01:00 -0.70835E13OSO0
02:00 -1.30767E15ESE0
03:00 -1.80862E10ONO0
04:00 -1.80758E13E0
05:00 -2.10738E16ESE0
06:00 -2.70775E11E0
07:00 -3.30812ENE11E0
08:00 -2.20754E13E60
09:00 -1.30715E15E60
10:00 1.30625E11ESE60
11:00 5.70484NE10E60
12:00 5.90509OSO23OSO60
13:00 6.905413OSO23OSO60
14:00 7.805211OSO24O60
15:00 8.205312OSO23O60
16:00 8.405311OSO24O60
17:00 9.50497SSE24OSO60
18:00 9.10518ESE18ESE60
19:00 6.90615SSE24OSO0
20:00 5.806811OSO29O30
21:00 5.20716SSO15O0
22:00 4.90733SSE10S0
23:00 4.40771S6OSO0
minuit 3.90806OSO15OSO0

Graphique du 30-04-2019

 

Serveur OMMA